EHI
19 22 23 18 12 8 8 8 8 7 9 12 13 13 14 16 16 12 12 19 24 25 20 14 13 11 6 3 1 0 0 0 0 0 1 1 1 0 0 0 0 0 0
27 28 27 22 18 18 20 21 20 21 22 22 22 21 19 19 18 14 10 11 17 20 19 15 12 9 5 3 2 1 0 0 0 1 2 2 1 1 0 0 0 0 0
36 35 33 28 27 33 39 39 38 38 36 33 30 27 24 22 19 14 8 6 8 11 12 12 10 7 5 4 3 2 1 1 1 1 2 3 2 2 1 0 0 0 0
37 37 36 33 34 40 44 43 44 45 40 34 29 26 26 25 20 14 9 7 5 4 4 6 7 5 4 4 3 3 2 2 2 2 2 3 3 2 1 0 0 0 0
33 35 36 35 36 40 38 36 41 43 36 27 22 21 24 24 19 13 9 8 5 2 1 2 3 2 3 3 3 3 2 1 1 1 1 2 1 1 0 0 0 0 0
31 32 34 33 35 37 35 33 36 33 25 17 11 10 13 15 13 9 7 6 4 1 0 1 1 1 2 3 2 1 1 1 1 1 1 0 0 0 0 0 0 0 0
29 30 31 34 36 36 31 27 24 19 14 9 4 3 3 4 5 5 4 3 2 0 0 1 1 1 1 2 1 0 0 0 1 1 0 0 0 0 0 0 0 0 0
26 26 28 31 35 34 26 19 14 11 7 5 3 1 0 0 1 1 1 1 0 0 0 1 1 1 1 1 0 0 1 0 0 0 0 0 0 0 0 0 0 0 0
21 21 22 24 27 27 20 14 12 10 6 4 2 1 0 0 0 0 0 0 0 0 0 0 0 0 0 0 0 0 0 0 0 0 0 0 0 0 0 0 0 0 0
14 16 18 18 18 17 12 9 9 8 6 4 3 1 0 0 0 0 0 0 0 0 0 0 0 0 0 0 0 0 0 0 0 0 0 0 0 0 0 0 0 0 0
8 10 12 13 12 10 8 6 7 7 6 5 2 1 0 0 0 0 0 0 0 0 0 0 0 0 0 0 0 0 0 0 0 0 0 0 0 0 0 0 0 0 0
5 6 8 8 8 7 7 6 6 5 5 3 1 0 0 0 0 0 0 0 0 0 0 0 0 0 0 0 0 0 0 0 0 0 0 0 0 0 0 0 0 0 0
4 4 5 5 5 5 5 4 4 3 2 1 0 0 0 0 0 0 0 0 0 0 0 0 0 0 0 0 0 0 0 0 0 0 0 0 0 0 0 0 0 0 0
1 1 2 2 2 2 2 1 1 1 0 0 0 0 0 0 0 0 0 0 0 0 0 0 0 0 0 0 0 0 0 0 0 0 0 0 0 0 0 0 0 0 0
0 0 0 0 0 0 0 0 0 0 0 0 0 0 0 0 0 0 0 0 0 0 0 0 0 0 0 0 0 0 0 0 0 0 0 0 0 0 0 0 0 0 0
0 0 0 0 0 0 0 0 0 0 0 0 0 0 0 0 0 0 0 0 0 0 0 0 0 0 0 0 0 0 0 0 0 0 0 0 0 0 0 0 0 0 0
0 0 0 0 0 0 0 0 0 0 0 0 0 0 0 0 0 0 0 0 0 0 0 0 0 0 0 0 0 0 0 0 0 0 0 0 0 0 0 0 0 0 0
0 0 0 0 0 0 0 0 0 0 0 0 0 0 0 0 0 0 0 0 0 0 0 0 0 0 0 0 0 0 0 0 0 0 0 0 0 0 0 0 0 0 0
0 0 0 0 0 0 0 0 0 0 0 0 0 0 0 0 0 0 0 0 0 0 0 0 0 0 0 0 0 0 0 0 0 0 0 0 0 0 0 0 0 0 0
0 0 0 0 0 0 0 0 0 0 0 0 0 0 0 0 0 0 0 0 0 0 0 0 0 0 0 0 0 0 0 0 0 0 0 0 0 0 0 0 0 0 0
0 0 0 0 0 0 0 0 0 0 0 0 0 0 0 0 0 0 0 0 0 0 0 0 0 0 0 0 0 0 0 0 0 0 0 0 0 0 0 0 0 0 0
0 0 0 0 0 0 0 0 0 0 0 0 0 0 0 0 0 0 0 0 0 0 0 0 0 0 0 0 0 0 0 0 0 0 0 0 0 0 0 0 0 0 0
0 0 0 0 0 0 0 0 0 0 0 0 0 0 0 0 0 0 0 0 0 0 0 0 0 0 0 0 0 0 0 0 0 0 0 0 0 0 0 0 0 0 0
0 0 0 0 0 0 0 0 0 0 0 0 0 0 0 0 0 0 0 0 0 0 0 0 0 0 0 0 0 0 0 0 0 0 0 0 0 0 0 0 0 0 0
0 0 0 0 0 0 0 0 0 0 0 0 0 0 0 0 0 0 0 0 0 0 0 0 0 0 0 0 0 0 0 0 0 0 0 0 0 0 0 0 0 0 0
0 0 0 0 0 0 0 0 0 0 0 0 0 0 0 0 0 0 0 0 0 0 0 0 0 0 0 0 0 0 0 0 0 0 0 0 0 0 0 0 0 0 0
Wind_Speed
2 2 2 4 6 5 6 6 6 6 5 3 2 1 2 4 5 6 5 9 8 7 7 7 6 5 4 4 4 3 3 3 4 4 4 4 4 4 3 3 3 3 2
2 1 1 2 3 3 3 4 3 3 2 1 1 2 3 3 5 5 6 7 8 8 8 7 7 6 6 6 5 5 5 5 5 5 5 6 6 5 5 5 4 4 4
4 2 1 2 2 0 1 1 1 1 2 2 2 2 2 3 4 5 5 5 6 8 10 10 10 9 9 9 9 9 8 7 7 7 6 6 6 5 5 5 5 5 4
4 3 2 3 2 0 0 1 0 1 2 2 2 2 3 3 3 4 4 5 5 5 8 12 12 12 11 11 11 10 10 10 10 9 8 8 7 7 7 6 6 6 6
4 4 3 3 2 2 1 2 1 1 1 2 2 2 2 3 3 4 5 6 6 6 6 9 13 13 13 12 12 11 11 11 10 9 9 8 8 8 7 7 7 6 6
4 4 3 3 3 2 2 2 3 2 2 2 2 3 3 3 3 4 5 5 5 7 6 6 6 9 14 13 13 13 12 11 11 10 9 8 8 7 7 7 6 6 6
2 3 3 3 3 3 3 4 3 3 2 2 2 2 3 4 4 4 4 4 5 6 6 6 5 5 6 13 13 12 12 12 11 11 10 10 9 8 7 6 6 5 5
0 2 2 2 3 3 4 4 3 2 2 2 2 3 2 2 2 4 4 4 5 5 6 7 6 5 5 4 8 12 12 11 10 10 9 9 8 7 7 6 6 5 5
2 2 3 2 3 3 3 4 3 3 2 2 1 1 2 3 3 2 4 4 4 4 4 4 6 5 6 5 5 8 11 10 9 9 8 8 8 7 8 7 7 7 7
5 5 4 4 4 4 4 4 4 3 3 2 2 2 2 2 3 3 2 2 4 4 4 4 4 4 5 5 7 10 10 9 8 8 8 8 8 7 7 7 7 7 7
7 7 6 6 5 5 5 5 5 4 3 3 2 2 2 2 2 3 3 3 2 3 3 3 3 3 3 5 5 7 8 7 6 6 6 6 6 6 7 7 7 7 7
6 8 8 7 6 5 6 6 6 7 6 6 4 4 2 2 1 2 3 3 3 2 2 2 2 2 2 4 7 8 7 6 4 3 4 4 5 6 6 7 7 8 8
6 8 7 7 6 6 6 7 7 7 7 6 5 3 3 3 2 2 3 2 3 2 2 2 2 2 2 5 5 6 6 6 4 2 1 2 3 5 5 6 7 7 8
6 7 7 8 7 7 7 7 7 7 6 6 6 5 4 3 3 3 2 2 2 3 2 2 2 3 2 4 4 3 4 8 6 4 2 1 2 3 4 5 6 7 8
7 8 8 8 8 7 7 7 7 7 6 6 5 5 4 3 3 3 3 2 1 2 3 2 3 3 2 3 3 1 3 9 9 7 5 4 3 2 3 4 5 6 7
8 8 8 8 7 7 7 7 7 6 7 6 5 6 5 4 3 3 3 3 3 2 3 3 3 4 3 1 3 1 3 8 11 9 7 6 4 3 3 4 4 5 6
8 8 7 7 7 7 6 6 7 6 6 6 5 6 6 5 4 4 3 3 4 4 3 3 3 3 3 1 1 2 4 4 5 11 10 8 7 5 4 4 3 4 5
7 7 6 6 7 6 5 6 7 6 6 6 5 5 5 5 5 5 4 4 3 3 3 2 1 2 2 2 2 3 4 1 2 10 12 10 9 7 6 5 4 3 4
7 6 6 6 6 6 6 6 6 6 6 5 5 5 5 6 6 4 4 4 3 3 2 1 1 0 0 1 1 3 3 1 3 5 10 11 11 9 8 6 5 3 3
6 6 6 6 6 7 7 6 5 5 5 5 5 6 6 7 6 5 4 5 4 4 3 2 1 1 1 2 1 2 2 2 2 1 3 5 9 11 9 8 6 5 4
6 5 5 6 7 7 8 7 4 5 4 4 5 5 6 6 6 4 5 4 5 4 4 3 3 3 3 3 3 3 3 3 3 1 2 1 2 3 5 7 8 7 6
5 5 6 7 8 7 9 11 8 4 3 3 4 4 5 4 3 1 1 2 3 3 4 3 3 3 3 3 3 4 3 3 3 2 2 3 1 2 3 4 7 9 8
4 5 6 7 8 7 10 11 11 5 2 3 3 3 4 6 5 4 2 3 3 4 3 1 3 3 3 3 4 4 4 4 4 4 2 3 2 1 2 3 10 10 9
4 4 6 6 6 7 9 10 12 4 1 2 3 4 5 6 7 6 5 4 2 1 3 3 2 3 3 2 3 4 5 5 4 3 1 2 2 2 1 2 9 11 10
3 4 5 6 6 5 7 9 10 4 1 3 5 6 6 6 6 8 5 5 5 4 2 3 5 6 7 7 3 2 4 3 4 3 1 1 2 2 1 2 5 11 11
3 4 5 5 6 5 5 8 9 4 2 3 5 6 8 6 5 7 5 4 4 5 6 6 5 7 6 6 6 5 3 3 3 3 2 2 2 3 2 2 1 3 5
Wind_Direction
183 184 195 186 193 195 197 204 204 201 205 200 186 158 81 73 92 112 122 126 126 128 135 143 147 144 140 139 134 129 124 121 115 106 100 93 82 73 63 53 47 39 27
159 182 262 238 221 190 189 204 197 162 139 110 99 81 56 68 92 104 115 111 104 106 109 115 122 121 119 115 109 106 106 107 105 101 94 88 81 72 67 65 59 50 39
168 168 215 251 262 222 132 134 67 110 140 123 88 81 80 55 76 96 115 114 106 96 97 97 100 99 97 94 93 90 90 92 91 91 88 85 79 73 67 60 54 47 38
166 165 186 221 242 46 91 100 81 104 103 99 84 69 82 78 73 85 99 110 110 105 95 96 94 92 90 88 86 86 86 85 83 82 80 78 75 70 64 59 54 47 41
176 176 187 203 205 182 170 184 149 108 113 96 101 87 65 75 66 72 85 93 97 101 103 100 95 91 88 86 86 84 84 83 80 77 75 73 71 67 61 57 52 48 44
183 183 183 192 195 182 152 110 111 97 106 118 111 84 59 64 68 70 78 84 91 100 102 103 97 88 86 84 83 82 81 78 74 70 68 67 63 61 61 57 53 49 42
191 190 183 182 185 175 156 142 132 133 125 113 106 95 63 52 55 58 65 77 80 81 84 85 89 91 87 79 78 81 80 77 70 66 62 61 57 54 50 46 41 36 29
77 192 157 159 155 142 136 138 138 138 130 136 139 134 134 98 53 53 55 64 72 78 81 80 82 84 94 89 81 80 75 72 68 64 60 55 50 43 34 26 22 22 19
61 72 95 107 110 112 111 110 118 128 140 141 100 131 150 150 117 66 60 60 63 67 77 91 86 86 90 94 94 77 75 68 63 57 53 48 41 34 27 20 15 14 9
46 51 62 75 84 86 92 96 85 96 128 145 126 86 82 108 136 130 97 78 78 72 67 80 89 91 94 94 93 91 81 71 62 54 48 43 38 32 24 18 13 7 359
45 45 46 54 61 71 81 81 83 79 80 81 98 99 89 85 92 133 140 139 108 92 90 81 87 99 110 118 112 108 100 87 71 57 46 36 28 23 16 7 1 357 351
49 47 51 53 55 61 69 76 80 78 74 68 63 58 66 86 88 103 128 147 137 119 111 103 112 115 121 109 113 126 127 117 101 74 46 27 16 8 2 358 353 350 347
54 49 53 57 57 60 68 74 76 74 72 74 70 62 55 53 52 65 108 128 131 137 153 170 160 143 118 114 124 142 156 152 155 141 70 12 356 350 349 348 345 344 342
67 60 60 61 61 65 71 74 78 74 73 73 69 60 62 47 40 44 71 105 137 150 148 139 131 111 85 111 144 182 164 174 185 189 199 251 312 329 335 337 336 335 335
72 65 66 64 62 61 66 72 73 68 66 65 63 55 57 56 42 36 45 57 66 128 136 140 123 108 89 114 153 196 158 190 196 199 206 219 246 288 319 328 330 332 332
69 67 65 66 65 63 62 71 78 75 76 69 68 57 46 37 36 35 38 34 27 54 99 122 109 104 81 59 158 268 246 207 205 201 205 216 230 247 278 303 315 320 322
72 71 69 67 66 65 65 71 78 74 75 71 70 68 59 44 29 29 30 40 37 44 69 83 97 126 143 175 204 274 267 224 198 197 205 213 221 228 239 260 280 300 317
78 74 73 72 72 68 63 69 79 76 74 72 68 66 62 58 44 33 25 43 48 45 53 63 74 147 177 192 213 256 272 270 189 195 203 211 218 222 226 236 252 276 303
75 71 70 71 70 66 61 62 69 73 73 72 71 69 64 57 46 32 32 31 22 39 34 29 16 64 192 154 256 281 293 285 282 184 198 214 222 223 222 227 235 252 280
83 79 75 73 72 63 53 49 67 74 75 75 73 69 63 57 41 11 38 29 21 11 3 353 1 26 34 2 359 327 328 333 312 294 202 207 212 216 217 219 223 232 253
92 88 83 74 72 62 41 29 39 84 83 85 85 86 83 82 67 35 42 25 16 9 9 10 21 28 26 14 7 340 348 325 313 344 337 289 196 198 204 212 216 223 236
85 87 82 75 67 57 37 31 28 29 57 76 84 98 125 121 121 121 46 16 11 19 20 5 18 18 13 13 356 341 351 346 331 333 333 306 257 204 203 194 199 207 222
90 93 92 88 81 53 33 24 15 354 38 66 65 49 80 82 51 30 349 254 249 236 235 329 355 352 350 15 356 340 339 328 300 288 301 300 291 253 225 177 186 202 214
93 95 100 98 91 60 32 18 356 334 56 92 85 79 77 68 40 13 342 350 354 194 215 221 292 318 343 355 331 311 304 308 299 296 300 289 298 299 264 176 200 208 217
114 111 111 110 100 75 34 19 1 326 66 81 78 62 73 79 39 10 357 7 18 12 349 300 283 283 286 281 273 307 317 333 326 316 343 330 308 306 288 211 210 216 225
122 116 113 109 107 94 47 25 5 352 46 72 97 93 70 66 41 18 7 12 12 353 337 319 293 273 262 258 233 221 267 310 322 323 338 344 325 334 321 293 242 210 227